Regional Weather Roundup
Issued by NWS Columbia, SC

Home | Current Version | Previous Version | Text Only | Print | Product List | Glossary On
Versions: 1 2 3 4 5 6 7 8 9 10 11 12 13 14 15 16 17 18 19 20 21 22 23 24 25 26 27 28 29 30 31 32 33 34 35 36 37 38 39 40 41 42 43 44 45 46 47 48 49 50
000
ASUS42 KCAE 301110
RWRCAE
REGIONAL WEATHER ROUNDUP
NATIONAL WEATHER SERVICE COLUMBIA SC
700 AM EDT FRI SEP 30 2016

NOTE: "FAIR" INDICATES FEW OR NO CLOUDS BELOW 12,000 FEET WITH NO
SIGNIFICANT WEATHER AND/OR OBSTRUCTIONS TO VISIBILITY.

NOT ALL STATIONS ARE QUALITY CONTROLLED BY THE NATIONAL
WEATHER SERVICE. USE DATA WITH CAUTION...ESPECIALLY
DEWPOINT OBSERVATIONS.

SCZ001>056-GAZ040-063>065-077-301200-
...UPSTATE SOUTH CAROLINA...

CITY           SKY/WX    TMP DP  RH WIND       PRES   REMARKS
ANDERSON       CLEAR     52  49  89 CALM      29.99R
LIBERTY        SUNNY     46  45  96 CALM      29.97R
SPARTANBURG    CLEAR     55  50  82 CALM      29.97R
CLEMSON        PTCLDY    54  47  77 W7        29.99R
GREENVILLE     CLEAR     55  50  83 W5        29.99R
GREENWOOD      CLEAR     53  49  86 CALM      29.99S
GREER          CLEAR     55  52  89 CALM      29.97R
ROCK HILL      PTCLDY    59  58  96 CALM      29.98S FOG
CHESTER        SUNNY     55  52  88 CALM      29.98R
LAURENS        SUNNY     55  52  88 S5        29.97S


...CENTRAL SOUTH CAROLINA...

CITY           SKY/WX    TMP DP  RH WIND       PRES   REMARKS
COLUMBIA APT   CLEAR     61  54  77 CALM      29.97R
COLUMBIA OWENS CLEAR     62  56  80 CALM      29.98R
MCENTIRE ANGB  PTCLDY    60  59  96 CALM      29.97R
ORANGEBURG     CLEAR     63  55  75 N3        29.97R
SUMTER SHAW    CLEAR     66  61  84 W2        29.95R
NEWBERRY       SUNNY     55  54  94 S3        30.00S
AIKEN          FAIR      55  50  82 CALM      30.02R
MANNING        PTSUNNY   68  68 100 CALM      29.97R
LANCASTER      FOG       63  63 100 CALM      29.98S VSB<1/4
WINNSBORO      SUNNY     59  55  88 CALM      29.98R


...EASTERN AND COASTAL SOUTH CAROLINA...

CITY           SKY/WX    TMP DP  RH WIND       PRES   REMARKS
MYRTLE BEACH   MOCLDY    77  66  69 SW3       29.98R
N MYRTLE BCH   CLOUDY    79  75  87 S5        29.96R
CONWAY         CLOUDY    70  70 100 CALM      29.97R FOG
MARION         FOG       72  70  94 CALM      29.97S VSB 1/2
HARTSVILLE     CLOUDY    68  68 100 CALM      29.96S VSB 1/4
FLORENCE       FOG       72  71  97 SE3       29.97R VSB 1/2
DARLINGTON     FOG       71  71 100 CALM      29.97R VSB 1/4
CHARLESTON APT MOCLDY    72  69  90 NW3       29.97R
MOUNT PLEASANT PTSUNNY   72  72 100 CALM      29.97R FOG
WALTERBORO     PTSUNNY   68  68 100 NW3       29.98R
BEAUFORT       MOCLDY    71  68  90 NW6       29.98R


...EASTERN GEORGIA...

CITY           SKY/WX    TMP DP  RH WIND       PRES   REMARKS
AUGUSTA BUSH F CLEAR     58  51  78 W6        29.99R
AUGUSTA DANIEL CLEAR     62  48  60 W6        30.00R
THOMSON        CLEAR     55  52  90 CALM      30.04S
WASHINGTON     FAIR      55  50  82 W3        30.00R
CLAXTON        FAIR      59  59 100 CALM      30.00R
STATESBORO     CLEAR     59  58  96 CALM      29.99R
SAVANNAH       PTCLDY    64  59  83 CALM      29.98R


...SOUTHERN NORTH CAROLINA...

CITY           SKY/WX    TMP DP  RH WIND       PRES   REMARKS
CHARLOTTE      MOCLDY    67  65  93 S5        29.98S FOG
MONROE         CLOUDY    67  65  93 CALM      29.97R FOG
WADESBORO      CLOUDY    70  68  94 CALM      29.97R FOG
RUTHERFORDTON  PTCLDY    56  56 100 CALM      29.98R
ASHEVILLE      CLEAR     49  46  90 NW6       30.02R

$$



USA.gov is the U.S. government's official web portal to all federal, state and local government web resources and services.